www.pogodaiklimat.ru

ПОГОДА на Острове Бартер, AK

  • Прогноз погоды на Острове Бартер
  • Монитор погоды на Острове Бартер
  • Климат на Острове Бартер

АРХИВ ПОГОДЫ на Острове Бартер

Время (UTC), дата Ветер
(напр.,м/с)
 
Видим.   Явления Облачность Т
(С)
Тd
(С)
f
(%)
Тe
(С)
Тes
(С)
Комфортность

P
(гПа)

Po
(гПа)
Тmin
(С)
Tmax
(С)
R
(мм)
SD
(см)
04:52 26.03 ЮЗ  16 км    8/0 2100 м
[средняя] 
-5.0  -6.1  92  -10  -10    1016.5  1017.6  -5.6  0.0     
05:52 26.03 ЮЗ  16 км    ясно  -7.2  -8.3  92  -14  -14    1016.7  1017.9         
06:52 26.03 ЮЗ  16 км    ясно  -7.8  -8.9  92  -16  -16    1016.7  1017.9         
07:52 26.03 ЮЗ  16 км    ясно  -8.3  -9.4  92  -16  -16    1016.6  1017.9         
08:52 26.03 Ю  16 км    ясно  -10.0  -11.1  92  -16  -16    1016.8  1017.9         
09:52 26.03 Ю  16 км    ясно  -8.9  -10.0  92  -14  -14    1016.5  1017.6         
11:52 26.03 В  16 км    2/2 90 м  -13.9  -15.6  87  -22  -22    1016.3  1017.6         
12:03 26.03 В  16 км    8/8 90 м  -13.0  -14.0  92  -20  -20      1017.6         
12:14 26.03 В  2 км  дымка  8/8 90 м  -12.0  -13.0  92  -19  -19      1017.6         
12:17 26.03 В  1 км  дымка  10/10 90 м  -12.0  -13.0  92  -19  -19      1017.6         
12:20 26.03 В  2 км  дымка  10/10 90 м  -12.0  -13.0  92  -19  -19      1017.6         
12:25 26.03 В  4 км  дымка  10/10 90 м  -12.0  -13.0  92  -20  -20      1017.3         
12:29 26.03 В  2 км  дымка  10/10 90 м  -12.0  -13.0  92  -20  -20      1017.3         
12:31 26.03 В  800 м  переохлажденный туман  10/10 90 м  -12.0  -13.0  92  -20  -20      1017.3         
12:36 26.03 В  400 м  переохлажденный туман  10/10 90 м  -12.0  -13.0  92  -20  -20      1017.3         
12:52 26.03 В  400 м  переохлажденный туман  10/10 90 м  -11.7  -12.8  92  -21  -21    1016.4  1017.6         
13:00 26.03 В  800 м  переохлажденный туман  10/10 90 м  -12.0  -13.0  92  -21  -21      1017.6         
13:17 26.03 В  400 м  слабый снег, переохлажденный туман  10/10 90 м  -12.0  -13.0  92  -21  -21      1017.3         
13:21 26.03 В  800 м  слабый снег, переохлажденный туман  10/10 90 м  -12.0  -13.0  92  -21  -21      1017.3         
13:33 26.03 В  400 м  слабый снег, переохлажденный туман  10/10 90 м  -11.0  -12.0  92  -20  -20      1017.3         
13:52 26.03     н/о  переохлажденный туман  10/10 90 м  -11.1  -12.2  92  -11  -11    1016.1  1017.3         
14:52 26.03     400 м  переохлажденный туман  10/10 90 м  -9.4  -10.6  91  -10  -10    1016.0  1017.3         
15:52 26.03     400 м  переохлажденный туман  10/10 90 м  -8.9  -10.0  92  -10  -10    1015.9  1016.9         
16:52 26.03 В  400 м  слабый снег, переохлажденный туман  10/10 90 м  -8.9  -9.4  96  -18  -18    1015.6  1016.9  -13.9  -8.3     
17:16 26.03     800 м  слабый снег, переохлажденный туман  10/10 90 м  -8.0  -9.0  92  -9  -9      1016.9         
17:29 26.03 В  400 м  переохлажденный туман  10/10 90 м  -8.0  -9.0  92  -18  -18      1016.6         
17:39 26.03 В  800 м  переохлажденный туман  10/10 90 м  -8.0  -9.0  92  -17  -17      1016.6         
17:52 26.03 В  400 м  переохлажденный туман  10/10 90 м  -8.3  -8.9  95  -18  -18    1015.5  1016.6         
17:55 26.03 В  800 м  переохлажденный туман  10/10 90 м  -8.0  -9.0  92  -18  -18      1016.6         
17:59 26.03 В  1 км  дымка  10/10 90 м  -8.0  -9.0  92  -17  -17      1016.6         
18:02 26.03 В  2 км  дымка  10/10 90 м  -8.0  -9.0  92  -18  -18      1016.6         
18:06 26.03 В  2 км  дымка  10/10 90 м  -8.0  -9.0  92  -17  -17      1016.6         
18:09 26.03 В  3 км  дымка  10/10 90 м  -8.0  -9.0  92  -18  -18      1016.6         
18:12 26.03 В  4 км  дымка  10/10 90 м  -8.0  -9.0  92  -18  -18      1016.6         
18:15 26.03 В  6 км  дымка  10/10 90 м  -8.0  -9.0  92  -18  -18      1016.6         
18:52 26.03 В  4 км  дымка  10/10 90 м  -7.8  -8.9  92  -18  -18    1015.1  1016.2         
18:55 26.03 В  6 км  дымка  10/10 90 м  -8.0  -9.0  92  -18  -18      1016.2         
18:59 26.03 В  3 км  дымка  10/10 90 м  -8.0  -9.0  92  -18  -18      1016.2         
19:06 26.03 В  3 км  дымка  10/10 90 м  -8.0  -9.0  92  -18  -18      1016.2         
19:17 26.03 В  4 км  дымка  10/10 90 м  -8.0  -8.0  100  -18  -18      1016.2         
19:20 26.03 В  5 км  дымка  10/10 90 м  -8.0  -8.0  100  -18  -18      1016.2         
19:23 26.03 В  4 км  дымка  10/10 90 м  -8.0  -8.0  100  -18  -18      1016.2         
19:43 26.03 В  5 км  дымка  10/10 90 м  -7.0  -8.0  93  -17  -17      1016.2         
19:52 26.03 В  5 км  дымка  10/10 90 м  -7.2  -8.3  92  -18  -18    1014.9  1015.9         
19:56 26.03 В  4 км  слабый снег, дымка  10/10 90 м  -7.0  -8.0  93  -17  -17      1015.9         
20:00 26.03 В  6 км  слабый снег, дымка  8/8 90 м  -7.0  -8.0  93  -17  -17      1015.9         
20:11 26.03 В  4 км  дымка  10/10 90 м  -7.0  -8.0  93  -17  -17      1015.9         
20:20 26.03 В  3 км  дымка  10/10 90 м  -7.0  -8.0  93  -17  -17      1016.2         

 

Местоположение метеостанции Barter Island LRRS Airport: широта 70.1339 долгота -143.5769 высота над уровнем моря 2 м.

В архиве по умолчанию представлена погода на Острове Бартер за последние 1-2 суток. Обновление информации о фактической погоде в базе происходит ежечасно! Архивные данные за месяц целиком и за предыдущие месяцы Вы можете получить, выбрав интересующий диапазон дат из раскрывающегося списка и нажав кнопку "Ввод!".

Внимание! Архив погоды МЕТАР в базе сайта хранится не более 60 дней. Нет смысла пытаться выбрать более раннюю дату.

Внимание! Время в таблицах - всемирное. Для получения местного времени необходимо прибавить поправку, которая на Острове Бартер равна -9 ч.

Ветер - указаны скорость ветра в м/с и направление, откуда дует ветер: С - северный, СВ - северо-восточный, В - восточный, ЮВ - юго-восточный, Ю - южный, ЮЗ - юго-западный, З - западный, СЗ - северо-западный.
Видимость - горизонтальная дальность видимости в метрах или километрах. При видимости от 1 до 10 км при отсутствии осадков обычно наблюдается дымка, при ухудшении видимости до 1 км и менее - туман. В сухую погоду видимость может ухудшаться дымом, пылью или мглою.
Атмосферные явления - указаны явления, наблюдавшиеся в указанный момент времени.
Облачность - указаны через наклонную черту верхняя и нижняя облачность в баллах и высота нижней границы облаков в метрах. Внимание: облачность, как и прочие метеорологические величины в США измеряются автоматическими метеостанциями. Указанные значения в баллах носят условный характер и показывают процент времени, в течение которого, в среднем, лазерный луч высотомера отражался от облаков обратно.
T - Температура воздуха - температура, измеренная на высоте 2 м над землей.
Td - Температура точки росы - температура, при понижении до которой содержащийся в воздухе водяной пар достигнет насыщения.
f - Относительная влажность воздуха - влажноcть воздуха, измеренная на высоте 2 м над землей.
Te - Эффективная температура - температура, которую ощущает одетый по сезону человек в тени. Характеристика душности погоды. При расчете учитывается влияние влажности воздуха и скорости ветра на теплоощущения человека.
Tes - Эффективная температура на солнце - температура, которую ощущает человек, с поправкой на солнечный нагрев. Характеристика знойности погоды. Зависит от высоты солнца над горизонтом, облачности и скорости ветра. Ночью, в пасмурную погоду, а также при ветре 12 м/с и более поправка равна нулю.
P - Атмосферное давление - приведенное к уровню моря атмосферное давление.
Po - Атмосферное давление - измеренное на уровне метеостанции атмосферное давление.
Tmin - Минимальная температура - минимум температуры воздуха на высоте 2 м над землей.
Tmax - Максимальная температура - максимум температуры воздуха на высоте 2 м над землей.
R - Количество осадков - Количество выпавших осадков за 3 или 6 часов, мм.
SD - Снежный покров - Высота снежного покрова, см.